Regional Weather Roundup
Issued by NWS Grand Forks, ND

Home | Current Version | Previous Version | Text Only | Print | Product List | Glossary On
Versions: 1 2 3 4 5 6 7 8 9 10 11 12 13 14 15 16 17 18 19 20 21 22 23 24 25 26 27 28 29 30 31 32 33 34 35 36 37 38 39 40 41 42 43 44 45 46 47 48 49 50
000
ASUS43 KFGF 311210
RWRFGF
PRAIRIE TO PINES  WEATHER ROUNDUP
NATIONAL WEATHER SERVICE EASTERN NORTH DAKOTA/GRAND FORKS ND
700 AM CDT FRI OCT 31 2014

 **SATELLITE DATA USED TO AUGMENT SKY COVER AT AUTOMATED STATIONS**
 *****  WEATHER ACROSS EASTERN NORTH DAKOTA  *****

CITY           SKY/WX    TMP DP  RH WIND       PRES   REMARKS
GRAND FORKS    CLEAR     12   9  87 NW3       30.62S
6HR MIN TEMP:  12; 6HR MAX TEMP:  19;

GRAND FRKS AFB CLEAR     12  10  93 NW5       30.61F WCI   4
GRAND FRKS NWS   N/A     14 N/A N/A MISG        N/A
DEVILS LAKE    PTCLDY    14   5  67 SE3       30.55S
6HR MIN TEMP:  12; 6HR MAX TEMP:  21;

FARGO          FAIR      16  11  80 CALM      30.61R
WAHPETON ARPT  MOSUNNY   14  12  92 N3        30.61R
$$

 ***** WEATHER ACROSS CENTRAL AND WESTERN NORTH DAKOTA  *****

CITY           SKY/WX    TMP DP  RH WIND       PRES   REMARKS
BISMARCK       CLEAR     14  12  92 SE5       30.54F WCI   6
6HR MIN TEMP:  13; 6HR MAX TEMP:  22;

MINOT          PTCLDY    17  12  80 SE8       30.48F WCI   7
6HR MIN TEMP:  13; 6HR MAX TEMP:  19;

JAMESTOWN      CLEAR     14  11  87 CALM      30.57F
6HR MIN TEMP:  12; 6HR MAX TEMP:  20;

MINOT AFB      PTCLDY    16  15  95 SE10      30.48F WCI   4
GARRISON         N/A     25  22  88 SE9G21    30.49S WCI  15
WILLISTON      CLOUDY    31  25  78 S18G25    30.35F WCI  19
6HR MIN TEMP:  29; 6HR MAX TEMP:  31;

DICKINSON      CLOUDY    27  22  81 S20       30.36F WCI  13
6HR MIN TEMP:  26; 6HR MAX TEMP:  29;

HETTINGER      CLOUDY    27  25  92 SE14G22   30.41F WCI  16
6HR MIN TEMP:  27; 6HR MAX TEMP:  30;

$$

 *****  OTHER AIRPORT OBSERVATIONS IN OUR AREA  *****

CITY           SKY/WX    TMP DP  RH WIND       PRES   REMARKS
WALHALLA       FAIR      10  10 100 CALM      30.62S
GRAFTON AIRPOR FAIR      16  16 100 NW3       30.63R
VALLEY CITY AR FAIR      14  14 100 NW5       30.59S WCI   6
CANDO          FAIR       9   7  92 E3        30.56F
CAVALIER APRT  FAIR      16  14  93 W5        30.62S WCI   9
GWINNER        SUNNY     19  16  86 NW5       30.61S WCI  13
ROLLA          FAIR      14  12  92 S6        30.53F WCI   5
 ***** THE ABOVE OBSERVATIONS ARE NON NWS ARE NOT QUALITY
       CONTROLLED AND MAY MIS-REPORT RAIN FOR SNOW...
$$

  *****  WEATHER ACROSS NORTHERN MINNESOTA  *****

CITY           SKY/WX    TMP DP  RH WIND       PRES   REMARKS
FLAG ISLAND    CLEAR     27  19  74 E5        30.56F WCI  21
WARROAD        CLEAR     19  16  86 NW6       30.57F WCI  11
ROSEAU         CLEAR     19  14  79 CALM      30.58S
HALLOCK        CLEAR     12  10  92 CALM      30.62S
THF RVR FALLS  CLEAR     19  16  86 CALM      30.59S
6HR MIN TEMP:  19; 6HR MAX TEMP:  25;

BAUDETTE       CLEAR     22  18  85 CALM      30.57S
6HR MIN TEMP:  20; 6HR MAX TEMP:  27;

WASKISH        CLEAR     19  18  93 CALM      30.57S
CROOKSTON      CLEAR     12  10  92 NW3       30.63S
STEPHEN NDAWN    N/A     16  12  86 NW3         N/A
GREENBUSH NDAW   N/A     16  12  86 W3          N/A
$$
  *****  WEATHER ACROSS CENTRAL AND WEST MINNESOTA  *****

CITY           SKY/WX    TMP DP  RH WIND       PRES   REMARKS
FOSSTON        CLEAR     12  10  92 CALM      30.58R
BEMIDJI        CLEAR     20  15  82 NE5       30.55S WCI  13
PARK RAPIDS    CLEAR     21  16  81 NE5       30.55R WCI  15
6HR MIN TEMP:  15; 6HR MAX TEMP:  26;

ELBOW LAKE     FAIR      17  16  94 NW7       30.58R WCI   8
6HR MIN TEMP:  17; 6HR MAX TEMP:  26;

WADENA         CLEAR     16  14  93 CALM      30.55R
DETROIT LAKES  CLEAR     19  18  93 NW6       30.58R WCI  11
MOORHEAD       CLEAR     16  16 100 N3        30.62R
FERGUS FALLS   CLEAR     18  16  93 N3        30.62R
MORRIS MN      NOT AVBL
STAPLES        CLEAR     19  16  86 CALM      30.54S
$$
  *****  WEATHER ELSEWHERE ACROSS MINNESOTA  *****

CITY           SKY/WX    TMP DP  RH WIND       PRES   REMARKS
DULUTH         PTCLDY    26  16  65 N13       30.47S WCI  15
6HR MIN TEMP:  26; 6HR MAX TEMP:  29;

INTRNTL FALLS  MOCLDY    22  17  81 NW5       30.56R WCI  16
6HR MIN TEMP:  22; 6HR MAX TEMP:  28;

ELY            MOCLDY    23  18  80 N6        30.49R WCI  16
CLOQUET        PTCLDY    27  16  63 N7        30.49S WCI  19
WHEATON        CLEAR     16  14  93 CALM      30.62R
BRAINERD       CLEAR     24  17  74 N9        30.54R WCI  14
6HR MIN TEMP:  24; 6HR MAX TEMP:  28;

HIBBING        PTCLDY    24  15  68 N7        30.52R WCI  16
6HR MIN TEMP:  24; 6HR MAX TEMP:  28;

ALEXANDRIA     CLEAR     25  17  72 NE13      30.55R WCI  14
6HR MIN TEMP:  25; 6HR MAX TEMP:  29;

SAINT CLOUD    CLEAR     26  17  68 N8        30.52S WCI  18
6HR MIN TEMP:  26; 6HR MAX TEMP:  31;

MINNEAPOLIS    CLEAR     27  16  63 N12       30.50S WCI  17
6HR MIN TEMP:  27; 6HR MAX TEMP:  31;

$$

  *****  WEATHER ACROSS SOUTH DAKOTA  *****

CITY           SKY/WX    TMP DP  RH WIND       PRES   REMARKS
SIOUX FALLS    PTCLDY    21  17  84 N9        30.56R WCI  11
6HR MIN TEMP:  19; 6HR MAX TEMP:  27;

BROOKINGS      NOT AVBL
WATERTOWN      CLEAR     16  13  88 N5        30.54F WCI   9
6HR MIN TEMP:  15; 6HR MAX TEMP:  23;

HURON          PTCLDY    11   8  88 CALM      30.60S
6HR MIN TEMP:  10; 6HR MAX TEMP:  20;

SISSETON         N/A     17  15  92 NW7       30.59R WCI   8
ABERDEEN       PTCLDY    14  10  84 N6        30.60S WCI   5
6HR MIN TEMP:  14; 6HR MAX TEMP:  21;

MITCHELL       PTCLDY    16  14  92 N6        30.60S WCI   7
PIERRE         FOG       16  15  96 CALM      30.56S VSB 1/4
6HR MIN TEMP:  14; 6HR MAX TEMP:  27;

MOBRIDGE       PTCLDY    20  14  77 E10       30.52F WCI   9
RAPID CITY     CLOUDY    32  30  92 S16       30.40F WCI  21
6HR MIN TEMP:  30; 6HR MAX TEMP:  32;

$$

  *****  SOME WEATHER IN NEARBY STATES *****

CITY           SKY/WX    TMP DP  RH WIND       PRES   REMARKS
GLASGOW MT     PTCLDY    33  28  81 SE23      30.13F WCI  21
6HR MIN TEMP:  32; 6HR MAX TEMP:  36;

GREAT FALLS MT CLOUDY    54  30  40 S12G22    29.86F
6HR MIN TEMP:  44; 6HR MAX TEMP:  54;

CHEYENNE WY    PTCLDY    31  26  82 S9        30.34S WCI  23
6HR MIN TEMP:  31; 6HR MAX TEMP:  36;

SCOTTSBLUFF NE PTCLDY    30  28  92 E12       30.40F WCI  20
6HR MIN TEMP:  30; 6HR MAX TEMP:  35;

OMAHA NE       CLEAR     29  21  72 N14       30.54R WCI  18
6HR MIN TEMP:  29; 6HR MAX TEMP:  40;

DES MOINES IA  CLEAR     31  16  54 N14G22    30.44R WCI  21
6HR MIN TEMP:  31; 6HR MAX TEMP:  44; 6HR PCP: TRACE;

DAVENPORT IA   PTCLDY    32  19  58 NW17      30.27R WCI  21
6HR MIN TEMP:  32; 6HR MAX TEMP:  47;

CHICAGO IL     MOCLDY    36  26  67 NW23G29   30.08R
6HR MIN TEMP:  36; 6HR MAX TEMP:  47; 6HR PCP: TRACE;

EAU CLAIRE WI  CLEAR     28  19  69 N12       30.41R WCI  18
6HR MIN TEMP:  28; 6HR MAX TEMP:  32;

LA CROSSE WI   CLEAR     32  20  61 N14       30.37R WCI  22
6HR MIN TEMP:  32; 6HR MAX TEMP:  39;

$$

  *****  SOME NATIONAL WEATHER *****

CITY           SKY/WX    TMP DP  RH WIND       PRES   REMARKS
LA GUARDIA NY  MOCLDY    46  33  60 N7        30.02S
6HR MIN TEMP:  45; 6HR MAX TEMP:  48;

RALEIGH NC     PTCLDY    43  38  82 N6        29.96R
6HR MIN TEMP:  42; 6HR MAX TEMP:  47;

ATLANTA GA     MOCLDY    45  40  82 NW6       29.93S
6HR MIN TEMP:  44; 6HR MAX TEMP:  48;

NEW ORLEANS LA CLEAR     56  51  84 W5        30.04R
6HR MIN TEMP:  52; 6HR MAX TEMP:  59;

OKLAHOMA CITY  CLEAR     48  38  68 N18G25    30.35R
6HR MIN TEMP:  48; 6HR MAX TEMP:  60;

ALBUQUERQUE NM PTCLDY    53  26  35 E20       30.34S
6HR MIN TEMP:  53; 6HR MAX TEMP:  59;

SALT LAKE CITY MOCLDY    58  23  26 SE16G26   30.01F
6HR MIN TEMP:  50; 6HR MAX TEMP:  61;

LOS ANGELES CA MOCLDY    65  60  85 E5        29.94S



USA.gov is the U.S. government's official web portal to all federal, state and local government web resources and services.